Weather History for Honolulu, HI

Change the Weather History Date:

Monday, February 14, 2011

  Actual Average Record
Temperature  
Mean Temperature 76 °F 73 °F  
Max Temperature 80 °F 80 °F 86 °F (1978)
Min Temperature 71 °F 66 °F 57 °F (1993)
Degree Days  
Heating Degree Days 0 0  
Month to date heating degree days 0 0  
Since 1 July heating degree days 0 0  
Cooling Degree Days 11 8  
Month to date cooling degree days 130 112  
Year to date cooling degree days 397 366  
Growing Degree Days 26 (Base 50)    
Moisture  
Dew Point 68 °F    
Average Humidity 82    
Maximum Humidity 93    
Minimum Humidity 71    
Precipitation  
Precipitation 0.00 in 0.07 in 2.85 in (1994)
Month to date precipitation 1.72 0.91  
Year to date precipitation 4.59 3.22  
Snow  
Snow 0.00 in - - ()
Month to date snowfall 0.0  
Since 1 July snowfall 0.0  
Snow Depth 0.00 in    
Sea Level Pressure  
Sea Level Pressure 30.04 in    
Wind  
Wind Speed 4 mph (ENE)    
Max Wind Speed 10 mph    
Max Gust Speed 15 mph    
Visibility 10 miles    
Events      
T = Trace of Precipitation, MM = Missing Value Source: NWS Daily Summary

Daily Weather History Graph

Daily Weather History Graph

Search for Another Location

Airport:

Trip Planner

Search our weather history database for the weather conditions in past years. The results will help you decide how hot, cold, wet, or windy it might be!

Date:

Astronomy

Feb. 14, 2011 Rise Set
Actual Time 7:02 AM HST 6:29 PM HST
Civil Twilight 6:40 AM HST 6:51 PM HST
Nautical Twilight 6:13 AM HST 7:18 PM HST
Astronomical Twilight 5:47 AM HST 7:44 PM HST
Moon 3:05 PM HST (2/14) 3:52 AM HST (2/14)
Length of Visible Light 12h 11m
Length of Day
11h 26m
Waxing Gibbous, 84% of the Moon is Illuminated
Feb 14
Waxing Gibbous
Feb 17
Full
Feb 24
Last Quarter
Mar 4
New
Mar 12
First Quarter

Hourly Weather History & Observations

Time (HST) Temp. Heat Index Dew Point Humidity Pressure Visibility Wind Dir Wind Speed Gust Speed Precip Events Conditions
12:53 AM 73.9 °F - 70.0 °F 87% 30.03 in 10.0 mi Calm Calm - N/A   Scattered Clouds
1:53 AM 73.9 °F - 70.0 °F 87% 30.03 in 10.0 mi Calm Calm - N/A   Scattered Clouds
2:53 AM 73.0 °F - 69.1 °F 87% 30.01 in 10.0 mi Calm Calm - N/A   Scattered Clouds
3:53 AM 73.0 °F - 69.1 °F 87% 30.01 in 10.0 mi NNE 3.5 mph - N/A   Scattered Clouds
4:53 AM 72.0 °F - 69.1 °F 91% 30.01 in 10.0 mi West 4.6 mph - N/A   Scattered Clouds
5:53 AM 71.1 °F - 66.9 °F 87% 30.01 in 10.0 mi North 3.5 mph - N/A   Partly Cloudy
6:53 AM 71.1 °F - 66.9 °F 87% 30.04 in 10.0 mi North 3.5 mph - N/A   Partly Cloudy
7:53 AM 73.9 °F - 66.9 °F 79% 30.05 in 10.0 mi Calm Calm - N/A   Partly Cloudy
8:53 AM 75.9 °F - 68.0 °F 76% 30.07 in 10.0 mi Calm Calm - N/A   Scattered Clouds
9:53 AM 78.1 °F - 68.0 °F 71% 30.08 in 10.0 mi Calm Calm - N/A   Scattered Clouds
10:53 AM 78.1 °F - 68.0 °F 71% 30.07 in 10.0 mi South 5.8 mph - N/A   Scattered Clouds
11:53 AM 78.1 °F - 69.1 °F 74% 30.06 in 10.0 mi South 8.1 mph - N/A   Scattered Clouds
12:53 PM 78.1 °F - 69.1 °F 74% 30.03 in 10.0 mi SE 9.2 mph - N/A   Scattered Clouds
1:53 PM 79.0 °F - 70.0 °F 74% 30.00 in 10.0 mi SE 9.2 mph - N/A   Scattered Clouds
2:53 PM 79.0 °F - 69.1 °F 72% 29.99 in 10.0 mi South 9.2 mph - N/A   Scattered Clouds
3:53 PM 78.1 °F - 68.0 °F 71% 29.99 in 10.0 mi SSE 8.1 mph - N/A   Scattered Clouds
4:53 PM 80.1 °F 81.9 °F 64.9 °F 60% 30.00 in 10.0 mi NE 8.1 mph - N/A   Scattered Clouds
5:53 PM 78.1 °F - 64.9 °F 64% 30.03 in 10.0 mi NNE 8.1 mph - N/A   Scattered Clouds
6:53 PM 75.9 °F - 64.0 °F 67% 30.04 in 10.0 mi NNE 4.6 mph - N/A   Scattered Clouds
7:53 PM 75.0 °F - 64.9 °F 71% 30.05 in 10.0 mi NNE 3.5 mph - N/A   Partly Cloudy
8:53 PM 75.0 °F - 66.0 °F 73% 30.06 in 10.0 mi NE 5.8 mph - N/A   Partly Cloudy
9:53 PM 73.9 °F - 66.0 °F 76% 30.07 in 10.0 mi Calm Calm - N/A   Partly Cloudy
10:53 PM 73.0 °F - 66.9 °F 81% 30.07 in 10.0 mi Calm Calm - N/A   Partly Cloudy
11:53 PM 73.0 °F - 66.9 °F 81% 30.06 in 10.0 mi Calm Calm - N/A   Partly Cloudy